[[{"header":{"parameterUnit":"m.s-1","parameterCategory":1,"la1":30.2992,"la2":30.254,"lo1":-89.0895,"lo2":-89.0443,"dy":0.0025,"dx":0.0025,"nx":19,"ny":19,"refTime":"2026-04-24T09:00:00:Z","depth":0,"parameterNumber":2,"parameterNumberName":"U-component_of_WINDS"},"data":[0,0,0,2.6706,2.6709,2.6819,2.6819,2.6971,2.6973,0,0,0,0,0,0,0,0,0,0,0,2.6679,2.668,2.6706,2.6709,2.6819,2.682,2.6971,2.6973,0,0,0,0,0,0,0,0,0,0,0,2.6679,2.668,2.6682,2.6709,2.6819,2.682,2.6971,2.6884,0,0,0,0,0,0,0,0,0,0,2.6775,2.6755,2.668,2.6682,2.671,2.6819,2.682,2.688,2.689,2.6926,0,2.6959,0,2.6968,2.6984,2.6984,0,0,0,2.6705,2.6747,2.6772,2.6682,2.6711,2.6819,2.6768,2.6885,2.6896,2.6939,2.6961,2.6966,2.6971,2.6985,2.6985,2.7204,2.7205,0,0,2.6699,2.6702,2.6764,2.6779,2.6762,2.6765,2.6772,2.6892,2.6916,2.6961,2.697,2.6973,2.6986,2.6987,2.7202,2.7204,0,0,0,2.6684,2.6698,2.672,2.6773,2.6792,2.6768,2.6776,2.6911,2.6917,2.6971,2.6975,2.6987,2.6989,2.7201,2.7203,2.7263,0,0,0,2.668,2.669,2.6717,2.672,2.679,2.6853,2.6793,2.6909,2.6923,2.6974,2.6987,2.699,2.72,2.7202,2.7258,2.729,0,0,0,2.667,2.6688,2.6706,2.672,2.6768,2.6851,2.6864,2.6912,2.6925,2.6984,2.6991,2.7199,2.7202,2.7254,2.7284,2.7347,0,0,0,2.6661,2.676,2.6707,2.6819,2.6767,2.6887,2.6863,2.6953,2.7011,2.6988,2.72,2.7203,2.7253,2.728,2.7342,2.7398,2.7423,0,0,2.6787,2.6775,2.6841,2.6797,2.6927,2.687,2.7009,2.7061,2.7065,2.7157,2.7163,2.726,2.7283,2.7346,2.7561,2.758,0,0,0,2.6882,2.6929,2.6963,2.7017,2.7058,2.7095,2.7124,2.7143,2.7221,2.7112,2.7301,2.7315,2.7351,2.7378,2.7394,2.7424,2.7216,2.7215,2.7215,2.7065,2.7063,2.7171,2.7182,2.7236,2.7264,2.7307,2.7337,2.7322,2.7366,2.7393,2.7524,2.7555,2.7567,2.7599,2.7425,2.7425,2.7425,2.7425,2.7249,2.7314,2.7289,2.7384,2.7382,2.7463,2.7495,2.7481,2.7556,2.7504,2.7536,2.7477,2.7588,2.7616,2.743,2.7429,2.7428,2.7428,2.7428,2.7367,2.7397,2.7418,2.7495,2.7555,2.7564,2.7636,2.7633,2.763,2.7662,2.7689,2.7688,2.7684,2.7675,2.7676,2.7676,2.7677,2.7677,2.7677,2.7479,2.75,2.7561,2.7611,2.7645,2.7689,2.7719,2.7752,2.7788,2.778,2.778,2.7759,2.76,2.7559,2.7684,2.7683,2.7682,2.7682,2.7681,2.7662,2.762,2.7713,2.7747,2.7805,2.7864,2.7859,2.7927,2.7955,2.799,2.7963,2.7847,2.7834,2.7821,2.7787,2.7964,2.7964,2.7964,2.7964,2.7759,2.7752,2.7846,2.79,2.7952,2.7956,2.8062,2.8086,2.8105,2.8122,2.8097,2.8052,2.8039,2.8034,2.8016,2.7984,2.8207,2.8208,2.8208,2.787,2.7868,2.7958,2.7974,2.8019,2.8059,2.8157,2.8221,2.8234,2.8218,2.8135,2.8125,2.8052,2.8029,2.8008,2.7981,2.7922,0,0]},{"header":{"parameterUnit":"m.s-1","parameterCategory":1,"la1":30.2992,"la2":30.254,"lo1":-89.0895,"lo2":-89.0443,"dy":0.0025,"dx":0.0025,"nx":19,"ny":19,"refTime":"2026-04-24T09:00:00:Z","depth":0,"parameterNumber":3,"parameterNumberName":"V-component_of_WINDS"},"data":[0,0,0,3.6042,3.6044,3.6119,3.6119,3.6215,3.6216,0,0,0,0,0,0,0,0,0,0,0,3.6023,3.6023,3.6042,3.6044,3.6119,3.6119,3.6215,3.6216,0,0,0,0,0,0,0,0,0,0,0,3.6022,3.6023,3.6024,3.6044,3.6119,3.6119,3.6215,3.6157,0,0,0,0,0,0,0,0,0,0,3.6084,3.607,3.6023,3.6024,3.6044,3.6119,3.6119,3.6154,3.6161,3.6182,0,3.6204,0,3.6212,3.6223,3.6223,0,0,0,3.604,3.6065,3.6082,3.6024,3.6045,3.6119,3.6084,3.6158,3.6165,3.619,3.6205,3.6209,3.6213,3.6223,3.6224,3.6362,3.6363,0,0,3.6036,3.6037,3.6078,3.6087,3.6079,3.6082,3.6086,3.6162,3.6178,3.6206,3.6211,3.6215,3.6224,3.6225,3.6361,3.6362,0,0,0,3.6027,3.6034,3.605,3.6084,3.6097,3.6084,3.6089,3.6174,3.618,3.6212,3.6216,3.6224,3.6226,3.6361,3.6362,3.6402,0,0,0,3.6024,3.6028,3.6049,3.6049,3.6096,3.6137,3.61,3.6174,3.6183,3.6216,3.6224,3.6227,3.636,3.6361,3.6399,3.6421,0,0,0,3.6016,3.6027,3.604,3.6049,3.6082,3.6136,3.6146,3.6176,3.6186,3.6223,3.6227,3.6359,3.6361,3.6397,3.6417,3.6458,0,0,0,3.6008,3.6074,3.6041,3.6115,3.6082,3.6162,3.6145,3.6204,3.6241,3.6225,3.636,3.6362,3.6396,3.6414,3.6455,3.6492,3.6508,0,0,3.6091,3.6084,3.6128,3.61,3.6187,3.615,3.6242,3.6274,3.6275,3.6332,3.6335,3.64,3.6416,3.6457,3.6597,3.661,0,0,0,3.6154,3.6186,3.6209,3.6246,3.6273,3.6298,3.6316,3.6328,3.6377,3.6306,3.6426,3.6436,3.6459,3.6477,3.6488,3.6508,3.637,3.637,3.637,3.6272,3.6273,3.6345,3.6354,3.639,3.6408,3.6436,3.6454,3.6443,3.6471,3.6488,3.6573,3.6594,3.6602,3.6623,3.6508,3.6508,3.6508,3.6508,3.6393,3.6438,3.6422,3.6487,3.6486,3.6539,3.6558,3.6548,3.6595,3.6561,3.6581,3.6543,3.6616,3.6634,3.6511,3.6511,3.651,3.651,3.651,3.647,3.6491,3.6506,3.6559,3.6599,3.6605,3.6652,3.6649,3.6645,3.6666,3.6683,3.6682,3.668,3.6675,3.6675,3.6675,3.6675,3.6676,3.6676,3.6544,3.6559,3.6601,3.6636,3.6659,3.6688,3.6707,3.6728,3.675,3.6744,3.6744,3.6729,3.6624,3.6597,3.668,3.668,3.6679,3.6679,3.6678,3.6665,3.6637,3.6702,3.6725,3.6765,3.6804,3.68,3.6844,3.6861,3.6883,3.6864,3.6787,3.6779,3.677,3.6748,3.6865,3.6865,3.6865,3.6865,3.6729,3.6726,3.679,3.6827,3.6863,3.6866,3.6935,3.695,3.696,3.6969,3.6952,3.6923,3.6914,3.691,3.6899,3.6878,3.7025,3.7025,3.7025,3.6804,3.6803,3.6864,3.6877,3.6908,3.6934,3.6999,3.7039,3.7044,3.7032,3.6977,3.697,3.6922,3.6907,3.6893,3.6875,3.6837,0,0]}]]